FW2103 Weather Reports


time (UTC)temp
F
wind
direction
speed
knots
gust
knots
rain 1hr
in
rain 24hr
in
rain mn
in
humidity
%
barometer
mb
20260509002629 65 143 0.0 0.0 0.00 0.00 0.00 49 1010.0
20260509002126 65 142 0.0 0.0 0.00 0.00 0.00 49 1010.0
20260509001624 65 107 1.7 1.7 0.00 0.00 0.00 49 1009.9
20260509001119 65 145 0.0 0.0 0.00 0.00 0.00 49 1010.2
20260509000618 66 82 0.0 0.0 0.00 0.00 0.00 50 1010.0
20260509000114 66 92 0.0 0.0 0.00 0.00 0.00 49 1010.5
20260508235612 66 73 0.0 0.0 0.00 0.00 0.00 49 1010.4
20260508235108 66 109 0.0 0.0 0.00 0.00 0.00 49 1010.1
20260508234605 67 108 0.0 0.0 0.00 0.00 0.00 49 1010.3
20260508234101 67 88 0.0 0.0 0.00 0.00 0.00 47 1010.2
20260508233601 67 167 2.6 4.3 0.00 0.00 0.00 47 1010.1
20260508233058 67 147 2.6 2.6 0.00 0.00 0.00 46 1010.3
20260508232555 67 146 2.6 2.6 0.00 0.00 0.00 47 1010.2
20260508232052 68 152 0.9 1.7 0.00 0.00 0.00 46 1010.5
20260508231550 69 104 3.5 4.3 0.00 0.00 0.00 44 1010.5
20260508231046 69 148 2.6 2.6 0.00 0.00 0.00 44 1010.3
20260508230543 69 152 0.0 0.0 0.00 0.00 0.00 44 1010.2
20260508230040 69 128 0.0 0.0 0.00 0.00 0.00 46 1010.2
20260508225537 69 135 0.0 0.0 0.00 0.00 0.00 44 1010.2
20260508225033 69 163 0.9 1.7 0.00 0.00 0.00 43 1010.2
20260508224531 70 174 1.7 1.7 0.00 0.00 0.00 43 1009.9
20260508224029 70 130 0.0 0.0 0.00 0.00 0.00 42 1010.1
20260508223526 70 155 0.0 0.0 0.00 0.00 0.00 42 1010.3
20260508223023 70 64 0.0 0.0 0.00 0.00 0.00 43 1010.2
20260508222521 69 124 0.9 0.9 0.00 0.00 0.00 43 1010.1
20260508222017 69 166 1.7 1.7 0.00 0.00 0.00 43 1010.2
20260508221514 69 150 3.5 4.3 0.00 0.00 0.00 43 1010.1
20260508221010 69 170 1.7 1.7 0.00 0.00 0.00 43 1010.0
20260508220506 70 176 1.7 1.7 0.00 0.00 0.00 43 1010.1
20260508220002 70 200 1.7 2.6 0.00 0.00 0.00 42 1010.0
20260508215459 70 359 0.9 0.9 0.00 0.00 0.00 42 1009.9
20260508214956 70 178 0.0 0.0 0.00 0.00 0.00 44 1009.9
20260508214454 69 150 0.0 0.0 0.00 0.00 0.00 44 1010.1
20260508213950 69 145 0.0 0.0 0.00 0.00 0.00 45 1010.1
20260508213448 69 119 0.9 1.7 0.00 0.00 0.00 44 1010.2
20260508212942 70 158 4.3 6.1 0.00 0.00 0.00 41 1010.3
20260508212440 71 160 0.0 0.0 0.00 0.00 0.00 43 1010.4
20260508211935 71 179 0.9 1.7 0.00 0.00 0.00 41 1010.4
20260508211431 71 161 1.7 1.7 0.00 0.00 0.00 41 1010.4
20260508210929 72 352 1.7 4.3 0.00 0.00 0.00 40 1010.4
20260508210425 71 331 0.0 0.0 0.00 0.00 0.00 42 1010.4
20260508205921 70 182 2.6 4.3 0.00 0.00 0.00 41 1010.6
20260508205419 71 191 1.7 1.7 0.00 0.00 0.00 41 1010.3
20260508204915 72 162 3.5 5.2 0.00 0.00 0.00 41 1010.8
20260508204412 72 50 0.9 0.9 0.00 0.00 0.00 41 1010.7
20260508203908 71 309 2.6 2.6 0.00 0.00 0.00 42 1010.8
20260508203404 71 153 1.7 4.3 0.00 0.00 0.00 43 1010.8
20260508202900 70 141 4.3 5.2 0.00 0.00 0.00 42 1010.9
20260508202357 71 1 1.7 4.3 0.00 0.00 0.00 44 1011.2
20260508201855 72 196 3.5 4.3 0.00 0.00 0.00 42 1011.3
20260508201351 71 358 0.0 0.0 0.00 0.00 0.00 46 1011.2
20260508200847 71 171 1.7 1.7 0.00 0.00 0.00 40 1011.7
20260508200345 72 123 2.6 4.3 0.00 0.00 0.00 43 1011.6
20260508195840 72 124 1.7 2.6 0.00 0.00 0.00 41 1011.6
20260508195337 71 172 0.0 0.0 0.00 0.00 0.00 41 1011.6
20260508194833 71 165 2.6 4.3 0.00 0.00 0.00 41 1011.8
20260508194331 73 130 0.9 1.7 0.00 0.00 0.00 43 1011.9
20260508193827 71 136 3.5 4.3 0.00 0.00 0.00 43 1011.8
20260508193324 71 8 0.9 2.6 0.00 0.00 0.00 40 1011.7
20260508192820 71 302 0.9 2.6 0.00 0.00 0.00 41 1011.7
20260508192318 70 158 0.0 0.0 0.00 0.00 0.00 41 1011.7
20260508191815 71 32 0.0 0.0 0.00 0.00 0.00 42 1011.6
20260508191312 71 94 0.9 1.7 0.00 0.00 0.00 43 1011.6
20260508190809 71 338 0.0 0.9 0.00 0.00 0.00 43 1011.7
20260508190305 70 357 0.0 0.9 0.00 0.00 0.00 43 1011.7
20260508185801 71 159 0.0 0.0 0.00 0.00 0.00 43 1011.7
20260508185259 70 147 3.5 5.2 0.00 0.00 0.00 41 1011.9
20260508184756 70 161 0.0 0.0 0.00 0.00 0.00 42 1011.9
20260508184253 70 132 0.0 0.0 0.00 0.00 0.00 41 1012.3
20260508183750 72 256 1.7 1.7 0.00 0.00 0.00 40 1012.1
20260508183247 71 133 2.6 2.6 0.00 0.00 0.00 41 1012.3
20260508182743 71 190 3.5 4.3 0.00 0.00 0.00 40 1012.4
20260508182239 70 170 4.3 5.2 0.00 0.00 0.00 44 1012.4
20260508181735 71 146 0.0 0.0 0.00 0.00 0.00 38 1012.7
20260508181232 71 173 0.0 0.0 0.00 0.00 0.00 44 1012.7
20260508180729 71 190 2.6 4.3 0.00 0.00 0.00 39 1012.9
20260508180226 71 158 2.6 2.6 0.00 0.00 0.00 40 1012.8
20260508175722 71 85 0.9 1.7 0.00 0.00 0.00 42 1013.0
20260508175219 70 322 0.0 0.9 0.00 0.00 0.00 45 1012.9
20260508174717 69 124 0.0 0.0 0.00 0.00 0.00 42 1013.1
20260508174214 71 34 0.0 0.0 0.00 0.00 0.00 42 1013.3
20260508173710 69 12 0.9 0.9 0.00 0.00 0.00 41 1013.3
20260508173206 69 151 0.9 1.7 0.00 0.00 0.00 40 1013.5
20260508172704 69 157 0.0 0.0 0.00 0.00 0.00 45 1013.4
20260508172200 67 157 2.6 2.6 0.00 0.00 0.00 41 1013.9
20260508171657 68 144 7.0 8.7 0.00 0.00 0.00 44 1013.8
20260508171153 68 159 1.7 4.3 0.00 0.00 0.00 42 1013.8
20260508170650 70 110 0.0 0.9 0.00 0.00 0.00 43 1013.9
20260508170148 69 130 0.0 0.0 0.00 0.00 0.00 47 1014.0
20260508165645 68 205 0.0 0.0 0.00 0.00 0.00 46 1014.0
20260508165142 68 170 0.9 1.7 0.00 0.00 0.00 44 1014.5
20260508164638 68 95 0.9 0.9 0.00 0.00 0.00 49 1014.3
20260508164135 68 144 2.6 4.3 0.00 0.00 0.00 48 1014.2
20260508163633 68 2 2.6 5.2 0.00 0.00 0.00 47 1014.5
20260508163130 68 159 0.0 0.0 0.00 0.00 0.00 45 1014.7
20260508162626 67 119 4.3 6.1 0.00 0.00 0.00 52 1014.8
20260508162123 66 215 2.6 4.3 0.00 0.00 0.00 47 1014.6
20260508161620 67 121 0.0 0.0 0.00 0.00 0.00 47 1014.8
20260508161118 65 122 0.9 0.9 0.00 0.00 0.00 48 1014.8
20260508160616 66 213 0.9 2.6 0.00 0.00 0.00 49 1015.0
20260508160113 66 153 0.0 0.0 0.00 0.00 0.00 47 1015.2
20260508155610 67 163 0.9 1.7 0.00 0.00 0.00 48 1015.1
20260508155107 65 17 0.0 0.0 0.00 0.00 0.00 49 1015.4
20260508154603 66 132 4.3 6.1 0.00 0.00 0.00 49 1015.2
20260508154100 65 49 0.0 0.0 0.00 0.00 0.00 53 1015.1
20260508153557 65 334 0.0 0.0 0.00 0.00 0.00 52 1015.3
20260508153054 64 49 0.0 0.0 0.00 0.00 0.00 52 1015.4
20260508152551 64 133 3.5 5.2 0.00 0.00 0.00 50 1015.3
20260508152046 63 156 0.0 0.0 0.00 0.00 0.00 50 1015.5
20260508151542 63 168 0.0 0.0 0.00 0.00 0.00 53 1015.4
20260508151034 62 180 2.6 2.6 0.00 0.00 0.00 52 1015.5
20260508150532 62 139 1.7 2.6 0.00 0.00 0.00 53 1015.9
20260508150027 62 147 2.6 2.6 0.00 0.00 0.00 53 1015.8
20260508145524 62 28 0.9 0.9 0.00 0.00 0.00 54 1016.0
20260508145020 61 168 0.0 0.0 0.00 0.00 0.00 56 1016.0
20260508144518 61 0 1.7 1.7 0.00 0.00 0.00 56 1016.0
20260508144015 60 312 1.7 1.7 0.00 0.00 0.00 57 1015.9
20260508143513 60 321 2.6 4.3 0.00 0.00 0.00 59 1016.1
20260508143009 59 144 0.0 0.0 0.00 0.00 0.00 57 1016.0
20260508142506 59 150 2.6 2.6 0.00 0.00 0.00 61 1015.8
20260508142002 59 80 0.0 0.0 0.00 0.00 0.00 61 1016.0
20260508141459 58 119 0.0 0.0 0.00 0.00 0.00 60 1015.7
20260508140957 58 135 0.0 0.0 0.00 0.00 0.00 62 1015.9
20260508140454 57 163 0.9 1.7 0.00 0.00 0.00 61 1016.0
20260508135949 57 150 0.0 0.0 0.00 0.00 0.00 65 1016.1
20260508135446 56 56 0.0 0.0 0.00 0.00 0.00 63 1016.2
20260508134943 56 150 0.0 0.0 0.00 0.00 0.00 62 1016.0
20260508134439 55 5 0.9 1.7 0.00 0.00 0.00 64 1016.2
20260508133936 55 164 0.0 0.0 0.00 0.00 0.00 65 1016.1
20260508133433 54 142 0.0 0.0 0.00 0.00 0.00 68 1016.0
20260508132930 54 99 0.0 0.0 0.00 0.00 0.00 69 1015.9
20260508132428 53 202 0.0 0.0 0.00 0.00 0.00 65 1016.1
20260508131925 53 134 0.0 0.0 0.00 0.00 0.00 68 1015.9
20260508131420 52 100 0.0 0.0 0.00 0.00 0.00 68 1015.9
20260508130917 52 148 0.0 0.0 0.00 0.00 0.00 68 1016.0
20260508130414 51 137 0.0 0.0 0.00 0.00 0.00 68 1016.0
20260508125910 51 176 0.0 0.0 0.00 0.00 0.00 68 1016.0
20260508125406 51 158 0.0 0.0 0.00 0.00 0.00 68 1016.1
20260508124904 50 139 0.0 0.0 0.00 0.00 0.00 69 1016.2
20260508124401 50 144 0.0 0.0 0.00 0.00 0.00 71 1016.0
20260508123859 49 142 0.0 0.0 0.00 0.00 0.00 71 1016.0
20260508123357 48 127 0.0 0.0 0.00 0.00 0.00 73 1016.0
20260508122853 48 112 0.0 0.0 0.00 0.00 0.00 74 1015.9
20260508122350 47 132 0.0 0.0 0.00 0.00 0.00 74 1016.0
20260508121847 46 127 0.0 0.0 0.00 0.00 0.00 77 1015.8
20260508121346 46 129 0.0 0.0 0.00 0.00 0.00 77 1016.1
20260508120843 46 128 0.0 0.0 0.00 0.00 0.00 78 1015.8
20260508120341 45 119 0.0 0.0 0.00 0.00 0.00 78 1015.8
20260508115838 45 119 0.0 0.0 0.00 0.00 0.00 78 1015.7
20260508115335 45 125 0.0 0.0 0.00 0.00 0.00 78 1015.8
20260508114832 44 138 0.0 0.0 0.00 0.00 0.00 78 1015.5
20260508114329 44 133 0.0 0.0 0.00 0.00 0.00 79 1015.5
20260508113826 43 126 0.0 0.0 0.00 0.00 0.00 80 1015.5
20260508113324 43 122 0.0 0.0 0.00 0.00 0.00 81 1015.3
20260508112820 43 124 0.0 0.0 0.00 0.00 0.00 81 1015.4
20260508112317 42 121 0.0 0.0 0.00 0.00 0.00 81 1015.4
20260508111814 42 111 0.0 0.0 0.00 0.00 0.00 82 1015.3
20260508111311 42 114 0.0 0.0 0.00 0.00 0.00 82 1015.2
20260508110808 42 108 0.0 0.0 0.00 0.00 0.00 82 1015.4
20260508110306 41 95 0.0 0.0 0.00 0.00 0.00 83 1015.2
20260508105805 41 93 0.0 0.0 0.00 0.00 0.00 84 1015.0
20260508105305 41 93 0.0 0.0 0.00 0.00 0.00 84 1015.1
20260508104759 41 93 0.0 0.0 0.00 0.00 0.00 84 1015.3
20260508104256 41 93 0.0 0.0 0.00 0.00 0.00 84 1015.1
20260508103753 41 93 0.0 0.0 0.00 0.00 0.00 84 1015.1
20260508103250 41 93 0.0 0.0 0.00 0.00 0.00 84 1015.1
20260508102747 41 95 0.0 0.0 0.00 0.00 0.00 83 1015.2
20260508102246 41 91 0.0 0.0 0.00 0.00 0.00 84 1015.2
20260508101743 41 91 0.0 0.0 0.00 0.00 0.00 83 1015.1
20260508101240 41 91 0.0 0.0 0.00 0.00 0.00 84 1015.0
20260508100738 41 91 0.0 0.0 0.00 0.00 0.00 84 1015.1
20260508100235 41 91 0.0 0.0 0.00 0.00 0.00 83 1015.3
20260508095731 42 91 0.0 0.0 0.00 0.00 0.00 83 1015.2
20260508095229 42 89 0.0 0.0 0.00 0.00 0.00 83 1015.2
20260508094725 42 89 0.0 0.0 0.00 0.00 0.00 83 1015.2
20260508094222 42 89 0.0 0.0 0.00 0.00 0.00 83 1015.1
20260508093720 42 85 0.0 0.0 0.00 0.00 0.00 83 1015.2
20260508093217 42 85 0.0 0.0 0.00 0.00 0.00 83 1014.9
20260508092714 42 85 0.0 0.0 0.00 0.00 0.00 83 1015.1
20260508092212 41 85 0.0 0.0 0.00 0.00 0.00 84 1015.0
20260508091710 41 85 0.0 0.0 0.00 0.00 0.00 84 1015.0
20260508091207 41 85 0.0 0.0 0.00 0.00 0.00 84 1015.0
20260508090704 41 85 0.0 0.0 0.00 0.00 0.00 84 1014.9
20260508090202 41 85 0.0 0.0 0.00 0.00 0.00 83 1014.9
20260508085657 42 85 0.0 0.0 0.00 0.00 0.00 83 1014.9
20260508085155 42 85 0.0 0.0 0.00 0.00 0.00 83 1014.8
20260508084651 42 85 0.0 0.0 0.00 0.00 0.00 83 1014.9
20260508084148 42 85 0.0 0.0 0.00 0.00 0.00 82 1015.0
20260508083646 43 85 0.0 0.0 0.00 0.00 0.00 81 1014.6
20260508083143 43 75 0.0 0.0 0.00 0.00 0.00 80 1015.1
20260508082632 43 75 0.0 0.0 0.00 0.00 0.00 80 1014.9
20260508082130 43 73 0.0 0.0 0.00 0.00 0.00 80 1014.7
20260508081628 43 68 0.0 0.0 0.00 0.00 0.00 80 1014.4
20260508081124 43 67 0.0 0.0 0.00 0.00 0.00 80 1014.5
20260508080621 43 67 0.0 0.0 0.00 0.00 0.00 80 1014.5
20260508080119 43 66 0.0 0.0 0.00 0.00 0.00 79 1014.6
20260508075615 44 66 0.0 0.0 0.00 0.00 0.00 78 1014.7
20260508075112 44 66 0.0 0.0 0.00 0.00 0.00 78 1014.9
20260508074610 44 67 0.0 0.0 0.00 0.00 0.00 78 1015.0
20260508074107 44 56 0.0 0.0 0.00 0.00 0.00 78 1014.7
20260508073604 44 52 0.0 0.0 0.00 0.00 0.00 79 1014.8
20260508073102 44 51 0.0 0.0 0.00 0.00 0.00 79 1014.9
20260508072557 43 45 0.0 0.0 0.00 0.00 0.00 79 1014.7
20260508072054 43 12 0.0 0.0 0.00 0.00 0.00 80 1015.0
20260508071552 43 12 0.0 0.0 0.00 0.00 0.00 80 1015.0
20260508071050 43 12 0.0 0.0 0.00 0.00 0.00 81 1015.1
20260508070547 43 12 0.0 0.0 0.00 0.00 0.00 81 1015.0
20260508070045 43 12 0.0 0.0 0.00 0.00 0.00 81 1015.2
20260508065543 43 12 0.0 0.0 0.00 0.00 0.00 81 1015.2
20260508065041 43 12 0.0 0.0 0.00 0.00 0.00 81 1015.2
20260508064538 43 12 0.0 0.0 0.00 0.00 0.00 81 1015.2
20260508064036 43 12 0.0 0.0 0.00 0.00 0.00 81 1015.1
20260508063533 43 12 0.0 0.0 0.00 0.00 0.00 81 1015.2
20260508063031 44 12 0.0 0.0 0.00 0.00 0.00 81 1015.3
20260508062528 43 12 0.0 0.0 0.00 0.00 0.00 80 1015.2
20260508062025 43 12 0.0 0.0 0.00 0.00 0.00 82 1015.2
20260508061523 43 12 0.0 0.0 0.00 0.00 0.00 82 1015.4
20260508061019 44 12 0.0 0.0 0.00 0.00 0.00 83 1015.2
20260508060516 44 12 0.0 0.0 0.00 0.00 0.00 82 1015.7
20260508060014 44 12 0.0 0.0 0.00 0.00 0.00 81 1015.7
20260508055509 44 12 0.0 0.0 0.00 0.00 0.00 81 1015.9
20260508055007 44 12 0.0 0.0 0.00 0.00 0.00 80 1015.7
20260508054503 44 12 0.0 0.0 0.00 0.00 0.00 79 1016.0
20260508054000 44 12 0.0 0.0 0.00 0.00 0.00 80 1015.8
20260508053456 44 12 0.0 0.0 0.00 0.00 0.00 80 1015.8
20260508052954 44 12 0.0 0.0 0.00 0.00 0.00 82 1015.5
20260508052452 44 12 0.0 0.0 0.00 0.00 0.00 81 1015.7
20260508051948 44 12 0.0 0.0 0.00 0.00 0.00 79 1015.7
20260508051443 44 12 0.0 0.0 0.00 0.00 0.00 80 1015.4
20260508050940 44 12 0.0 0.0 0.00 0.00 0.00 80 1015.7
20260508050436 44 12 0.0 0.0 0.00 0.00 0.00 80 1015.4
20260508045932 45 12 0.0 0.0 0.00 0.00 0.00 80 1015.7
20260508045430 44 12 0.0 0.0 0.00 0.00 0.00 77 1015.7
20260508044928 44 12 0.0 0.0 0.00 0.00 0.00 78 1015.8
20260508044425 44 12 0.0 0.0 0.00 0.00 0.00 78 1015.7
20260508043920 45 12 0.0 0.0 0.00 0.00 0.00 79 1015.5
20260508043418 45 12 0.0 0.0 0.00 0.00 0.00 77 1015.8
20260508042914 45 12 0.0 0.0 0.00 0.00 0.00 77 1015.4
20260508042412 46 12 0.0 0.0 0.00 0.00 0.00 77 1015.5
20260508041909 46 12 0.0 0.0 0.00 0.00 0.00 72 1015.9
20260508041405 46 12 0.0 0.0 0.00 0.00 0.00 75 1015.7
20260508040901 45 12 0.0 0.0 0.00 0.00 0.00 73 1015.5
20260508040359 45 12 0.0 0.0 0.00 0.00 0.00 73 1015.5
20260508035857 45 12 0.0 0.0 0.00 0.00 0.00 72 1015.3
20260508035354 46 12 0.0 0.0 0.00 0.00 0.00 72 1015.3
20260508034850 46 12 0.0 0.0 0.00 0.00 0.00 74 1015.2
20260508034348 46 12 0.0 0.0 0.00 0.00 0.00 75 1015.5
20260508033844 46 12 0.0 0.0 0.00 0.00 0.00 74 1015.8
20260508033343 46 12 0.0 0.0 0.00 0.00 0.00 72 1015.5
20260508032840 46 12 0.0 0.0 0.00 0.00 0.00 75 1015.7
20260508032337 46 12 0.0 0.0 0.00 0.00 0.00 75 1015.8
20260508031834 46 12 0.0 0.0 0.00 0.00 0.00 70 1015.4
20260508031330 46 12 0.0 0.0 0.00 0.00 0.00 70 1015.7
20260508030827 47 12 0.0 0.0 0.00 0.00 0.00 73 1015.5
20260508030324 47 12 0.0 0.0 0.00 0.00 0.00 74 1015.4
20260508025821 47 12 0.0 0.0 0.00 0.00 0.00 72 1015.7
20260508025318 48 12 0.0 0.0 0.00 0.00 0.00 72 1015.4
20260508024815 48 12 0.0 0.0 0.00 0.00 0.00 69 1015.4
20260508024311 48 12 0.0 0.0 0.00 0.00 0.00 66 1015.3
20260508023808 48 12 0.0 0.0 0.00 0.00 0.00 66 1015.7
20260508023305 49 12 0.0 0.0 0.00 0.00 0.00 74 1015.4
20260508022801 48 12 0.0 0.0 0.00 0.00 0.00 65 1015.7
20260508022257 49 12 0.0 0.0 0.00 0.00 0.00 69 1015.3
20260508021755 49 12 0.0 0.0 0.00 0.00 0.00 73 1015.5
20260508021250 49 12 0.0 0.0 0.00 0.00 0.00 60 1015.5
20260508020747 49 12 0.0 0.0 0.00 0.00 0.00 61 1015.3
20260508020245 49 12 0.0 0.0 0.00 0.00 0.00 62 1015.3
20260508015741 49 12 0.0 0.0 0.00 0.00 0.00 67 1015.2
20260508015238 49 12 0.0 0.0 0.00 0.00 0.00 65 1015.2
20260508014735 49 12 0.0 0.0 0.00 0.00 0.00 62 1015.2
20260508014232 49 12 0.0 0.0 0.00 0.00 0.00 62 1015.1
20260508013728 49 12 0.0 0.0 0.00 0.00 0.00 65 1015.1
20260508013224 50 12 0.0 0.0 0.00 0.00 0.00 70 1014.9
20260508012722 50 12 0.0 0.0 0.00 0.00 0.00 65 1014.9
20260508012219 51 12 0.0 0.0 0.00 0.00 0.00 66 1014.9
20260508011717 51 12 0.0 0.0 0.00 0.00 0.00 61 1015.0
20260508011214 51 12 0.0 0.0 0.00 0.00 0.00 61 1014.9
20260508010711 51 12 0.0 0.0 0.00 0.00 0.00 64 1014.9
20260508010208 51 12 0.0 0.0 0.00 0.00 0.00 60 1014.9
20260508005705 52 12 0.0 0.0 0.00 0.00 0.00 62 1014.8
20260508005156 53 12 0.0 0.0 0.00 0.00 0.00 63 1014.8
20260508004652 53 11 0.0 0.0 0.00 0.00 0.00 60 1014.6
20260508004148 53 12 0.0 0.0 0.00 0.00 0.00 61 1014.9
20260508003645 53 12 0.0 0.0 0.00 0.00 0.00 60 1014.6
20260508003143 54 12 0.0 0.0 0.00 0.00 0.00 59 1014.8